Regional Weather Roundup
Issued by NWS Midland/Odessa, TX

Skip options and go directly to product.
Home | Oldest Version | Next Version | Current Version | All | Text Only | Save Text | Print | Product List | Glossary On

Skip product version selection by date and time.   
453
ASUS44 KMAF 301810
RWRMAF
MIDLAND AREA WEATHER ROUNDUP
NATIONAL WEATHER SERVICE MIDLAND TX
100 PM CDT THU JUN 30 2016

...IN SOUTHWEST TEXAS AND SOUTHEAST NEW MEXICO...

CITY           SKY/WX    TMP DP  RH WIND       PRES   REMARKS
ALPINE         MOSUNNY   84  53  33 CALM      30.24F
ANDREWS        FAIR      90  55  31 SE7G18    30.11F
ARTESIA        SUNNY     90  55  31 SE13      30.10F
BIG SPRING     SUNNY     87  61  40 SE7       30.10F
CARLSBAD       SUNNY     91  54  28 S9        30.08F
DRYDEN           N/A     92  63  38 VRB7      30.04F
FORT STOCKTON  SUNNY     91  57  31 E14G20    30.09F
GUAD PASS      CLOUDY    82  51  34 E8        30.26F
HOBBS          SUNNY     88  54  31 SE13G18   30.13F
MARFA          SUNNY    N/A N/A N/A S12       30.21F
MIDLAND AIRPK  SUNNY     89  60  37 SE6       30.10F
MIDLAND INTL   MOSUNNY   90  63  40 MISG      30.10F
ODESSA         MOSUNNY   88  62  41 S13       30.11F
PECOS          SUNNY     92  56  29 E12G17    30.06F
PRESIDIO       FAIR      90  59  34 SE10G17   30.06F
SEMINOLE       SUNNY     89  54  29 SE7       30.12F
SNYDER           N/A     86  65  49 SW7       30.08F
WINK           SUNNY     89  61  38 SE12      30.07F
$$
...OTHER STATIONS IN TEXAS...

CITY           SKY/WX    TMP DP  RH WIND       PRES   REMARKS
ABILENE        SUNNY     89  65  44 VRB3      30.06F
AMARILLO       SUNNY     90  59  35 S14G24    30.11F
AUSTIN         PTSUNNY   90  71  53 CALM      29.99F
BROWNSVILLE    MOSUNNY   93  71  48 S10       29.95F HX 100
CORPUS CHRISTI PTSUNNY   91  71  51 CALM      29.95F
DALLAS FTW     PTSUNNY   91  66  43 S8        30.00F
DEL RIO        MOSUNNY   91  68  46 S8        29.98F
EL PASO        PTSUNNY   89  51  27 SE9       30.11F
HOUSTON INT    MOSUNNY   89  73  59 VRB5      29.97F
LUBBOCK        PTSUNNY   88  59  37 SW9       30.09F
SAN ANGELO     SUNNY     89  65  44 E3        30.07F
SAN ANTONIO    PTSUNNY   93  70  46 VRB5      30.00F
WACO           MOSUNNY   92  68  45 S8        30.01F
WICHITA FALLS  NOT AVBL
$$
...OTHER LOCATIONS IN NEW MEXICO...

CITY           SKY/WX    TMP DP  RH WIND       PRES   REMARKS
ALAMAGORDO     SUNNY     90  50  25 SE10      30.14F
ALBUQUERQUE    CLOUDY    81  50  33 CALM      30.24F
CANNON AFB     MOSUNNY   87  58  37 S12G20    30.15F
CLOVIS         SUNNY     86  57  37 SW14G21   30.16F
HOLLOMAN AFB   MOSUNNY   89  50  25 S7        30.11F
ROSWELL        SUNNY     91  53  27 SE14G23   30.10F
RUIDOSO          N/A     81  37  21 SE10G18   30.34F
SANTA FE       CLOUDY    80  45  28 SW14G20   30.29F
TRUTH OR CONSE PTSUNNY   88  50  27 MISG      30.17F
TUCUMCARI      SUNNY     89  55  31 VRB3      30.11F
$$

USA.gov is the U.S. government's official web portal to all federal, state and local government web resources and services.